Weather History for PASK - January, 2013

Change the Weather History Date:

Monday, January 7, 2013

  Actual Average Record
Temperature  
Mean Temperature 12 °F -  
Max Temperature 15 °F - - ()
Min Temperature 10 °F - - ()
Degree Days  
Heating Degree Days 52    
Moisture  
Dew Point 5 °F    
Average Humidity 73    
Maximum Humidity 85    
Minimum Humidity 67    
Precipitation  
Precipitation 0.00 in - - ()
Sea Level Pressure  
Sea Level Pressure 29.48 in    
Wind  
Wind Speed 8 mph (East)    
Max Wind Speed 15 mph    
Max Gust Speed 17 mph    
Visibility 10 miles    
Events      
T = Trace of Precipitation, MM = Missing Value Source: NWS Daily Summary

Daily Weather History Graph

Daily Weather History Graph

Search for Another Location

Airport or City:

Trip Planner

Search our weather history database for the weather conditions in past years. The results will help you decide how hot, cold, wet, or windy it might be!

Date:

Astronomy

Jan. 07, 2013 Rise Set
Actual Time 12:06 PM AKST 3:27 PM AKST
Civil Twilight 10:32 AM AKST 5:01 PM AKST
Nautical Twilight 9:15 AM AKST 6:17 PM AKST
Astronomical Twilight 8:10 AM AKST 7:22 PM AKST
Moon 7:00 AM AKST (1/7) 12:25 PM AKST (1/7)
Length of Visible Light 6h 29m
Length of Day
3h 20m
Waning Crescent, 21% of the Moon is Illuminated
Jan 7
Waning Crescent
Jan 11
New
Jan 18
First Quarter
Jan 26
Full
Feb 3
Last Quarter

Hourly Weather History & Observations

Time (AKST) Temp. Windchill Dew Point Humidity Pressure Visibility Wind Dir Wind Speed Gust Speed Precip Events Conditions
12:16 AM 15.8 °F 0.9 °F 10.4 °F 79% 29.39 in 10.0 mi ENE 15.0 mph - N/A   Overcast
12:36 AM 15.8 °F 2.1 °F 10.4 °F 79% 29.39 in 10.0 mi NE 12.7 mph - N/A   Overcast
12:56 AM 15.8 °F 1.4 °F 8.6 °F 73% 29.39 in 10.0 mi NE 13.8 mph - N/A   Overcast
1:16 AM 15.8 °F 2.1 °F 8.6 °F 73% 29.39 in 10.0 mi NE 12.7 mph - N/A   Overcast
1:36 AM 15.8 °F 2.7 °F 8.6 °F 73% 29.39 in 10.0 mi NE 11.5 mph 17.3 mph N/A   Overcast
1:56 AM 15.8 °F 1.4 °F 8.6 °F 73% 29.38 in 10.0 mi NE 13.8 mph - N/A   Overcast
2:16 AM 15.8 °F 2.1 °F 8.6 °F 73% 29.39 in 10.0 mi NE 12.7 mph - N/A   Overcast
2:56 AM 15.8 °F 4.2 °F 6.8 °F 68% 29.38 in 10.0 mi NE 9.2 mph - N/A   Overcast
3:36 AM 15.8 °F 5.1 °F 8.6 °F 73% 29.38 in 10.0 mi ENE 8.1 mph - N/A   Overcast
3:56 AM 15.8 °F 4.2 °F 6.8 °F 68% 29.38 in 10.0 mi East 9.2 mph - N/A   Overcast
4:16 AM 15.8 °F 4.2 °F 8.6 °F 73% 29.38 in 10.0 mi ENE 9.2 mph - N/A   Overcast
4:36 AM 15.8 °F 3.4 °F 6.8 °F 68% 29.37 in 10.0 mi NE 10.4 mph - N/A   Overcast
4:56 AM 15.8 °F 2.7 °F 6.8 °F 68% 29.37 in 10.0 mi ENE 11.5 mph - N/A   Overcast
5:16 AM 15.8 °F 2.7 °F 6.8 °F 68% 29.38 in 10.0 mi ENE 11.5 mph - N/A   Overcast
5:36 AM 15.8 °F 2.7 °F 6.8 °F 68% 29.38 in 10.0 mi East 11.5 mph - N/A   Overcast
5:56 AM 15.8 °F 2.7 °F 6.8 °F 68% 29.37 in 10.0 mi ENE 11.5 mph - N/A   Overcast
6:16 AM 15.8 °F 8.6 °F 6.8 °F 68% 29.38 in 10.0 mi ESE 4.6 mph - N/A   Overcast
6:36 AM 12.2 °F 2.9 °F 8.6 °F 85% 29.39 in 10.0 mi ESE 5.8 mph - N/A   Overcast
6:56 AM 12.2 °F 2.9 °F 6.8 °F 79% 29.39 in 10.0 mi ESE 5.8 mph - N/A   Overcast
7:16 AM 12.2 °F 2.9 °F 6.8 °F 79% 29.39 in 10.0 mi East 5.8 mph - N/A   Overcast
7:36 AM 12.2 °F 1.7 °F 5.0 °F 73% 29.40 in 10.0 mi East 6.9 mph - N/A   Overcast
7:56 AM 12.2 °F 1.7 °F 5.0 °F 73% 29.40 in 10.0 mi ESE 6.9 mph - N/A   Overcast
8:16 AM 12.2 °F 2.9 °F 5.0 °F 73% 29.41 in 10.0 mi SE 5.8 mph - N/A   Overcast
8:36 AM 12.2 °F 1.7 °F 3.2 °F 67% 29.41 in 10.0 mi ESE 6.9 mph - N/A   Overcast
8:56 AM 10.4 °F 2.2 °F 3.2 °F 73% 29.41 in 10.0 mi ESE 4.6 mph - N/A   Overcast
9:16 AM 10.4 °F 0.8 °F 5.0 °F 79% 29.42 in 10.0 mi SE 5.8 mph - N/A   Overcast
9:36 AM 12.2 °F 4.3 °F 3.2 °F 67% 29.42 in 10.0 mi SE 4.6 mph - N/A   Overcast
9:56 AM 10.4 °F 4.0 °F 5.0 °F 79% 29.43 in 10.0 mi ESE 3.5 mph - N/A   Overcast
10:16 AM 10.4 °F 2.2 °F 5.0 °F 79% 29.44 in 10.0 mi SE 4.6 mph - N/A   Overcast
10:36 AM 10.4 °F 4.0 °F 3.2 °F 73% 29.45 in 10.0 mi SSE 3.5 mph - N/A   Overcast
10:56 AM 12.2 °F 4.3 °F 5.0 °F 73% 29.45 in 10.0 mi East 4.6 mph - N/A   Overcast
11:16 AM 12.2 °F 4.3 °F 3.2 °F 67% 29.46 in 10.0 mi ESE 4.6 mph - N/A   Overcast
11:36 AM 12.2 °F 2.9 °F 5.0 °F 73% 29.46 in 10.0 mi East 5.8 mph - N/A   Overcast
11:56 AM 10.4 °F 2.2 °F 5.0 °F 79% 29.46 in 10.0 mi ENE 4.6 mph - N/A   Overcast
12:16 PM 10.4 °F - 3.2 °F 73% 29.48 in 10.0 mi Calm Calm - N/A   Overcast
12:36 PM 10.4 °F 4.0 °F 3.2 °F 73% 29.48 in 10.0 mi SE 3.5 mph - N/A   Overcast
12:56 PM 10.4 °F - 5.0 °F 79% 29.48 in 10.0 mi Calm Calm - N/A   Overcast
1:16 PM 10.4 °F - 3.2 °F 73% 29.48 in 10.0 mi Calm Calm - N/A   Overcast
1:36 PM 10.4 °F 2.2 °F 6.8 °F 85% 29.49 in 10.0 mi ENE 4.6 mph - N/A   Overcast
2:16 PM 12.2 °F 2.9 °F 6.8 °F 79% 29.50 in 10.0 mi East 5.8 mph - N/A   Overcast
2:36 PM 10.4 °F 2.2 °F 3.2 °F 73% 29.50 in 10.0 mi ENE 4.6 mph - N/A   Overcast
2:56 PM 12.2 °F 4.3 °F 5.0 °F 73% 29.51 in 10.0 mi ENE 4.6 mph - N/A   Overcast
3:16 PM 12.2 °F 6.1 °F 3.2 °F 67% 29.51 in 10.0 mi ENE 3.5 mph - N/A   Overcast
3:36 PM 12.2 °F 2.9 °F 3.2 °F 67% 29.51 in 10.0 mi ENE 5.8 mph - N/A   Overcast
3:56 PM 12.2 °F 4.3 °F 3.2 °F 67% 29.52 in 10.0 mi ENE 4.6 mph - N/A   Overcast
4:16 PM 12.2 °F 4.3 °F 3.2 °F 67% 29.53 in 10.0 mi NE 4.6 mph - N/A   Overcast
4:36 PM 12.2 °F 4.3 °F 3.2 °F 67% 29.54 in 10.0 mi ENE 4.6 mph - N/A   Overcast
4:56 PM 12.2 °F 4.3 °F 3.2 °F 67% 29.54 in 10.0 mi ENE 4.6 mph - N/A   Overcast
5:16 PM 12.2 °F 2.9 °F 3.2 °F 67% 29.55 in 10.0 mi ENE 5.8 mph - N/A   Overcast
5:36 PM 12.2 °F 1.7 °F 5.0 °F 73% 29.55 in 10.0 mi ENE 6.9 mph - N/A   Overcast
5:56 PM 12.2 °F 4.3 °F 3.2 °F 67% 29.55 in 10.0 mi NE 4.6 mph - N/A   Overcast
6:36 PM 10.4 °F 4.0 °F 1.4 °F 67% 29.57 in 10.0 mi NE 3.5 mph - N/A   Overcast
6:56 PM 12.2 °F - 5.0 °F 73% 29.57 in 10.0 mi Calm Calm - N/A   Overcast
7:16 PM 12.2 °F 6.1 °F 5.0 °F 73% 29.57 in 10.0 mi ENE 3.5 mph - N/A   Overcast
7:56 PM 10.4 °F - 5.0 °F 79% 29.59 in 10.0 mi Calm Calm - N/A   Overcast
8:16 PM 10.4 °F - 5.0 °F 79% 29.59 in 10.0 mi Calm Calm - N/A   Overcast
8:36 PM 10.4 °F 4.0 °F 3.2 °F 73% 29.60 in 10.0 mi ESE 3.5 mph - N/A   Overcast
8:56 PM 10.4 °F - 3.2 °F 73% 29.60 in 10.0 mi Calm Calm - N/A   Overcast
9:16 PM 10.4 °F - 3.2 °F 73% 29.61 in 10.0 mi Calm Calm - N/A   Overcast
9:36 PM 10.4 °F 4.0 °F 3.2 °F 73% 29.63 in 10.0 mi East 3.5 mph - N/A   Overcast
9:56 PM 10.4 °F 4.0 °F 3.2 °F 73% 29.63 in 10.0 mi East 3.5 mph - N/A   Overcast
10:16 PM 10.4 °F - 1.4 °F 67% 29.64 in 10.0 mi Calm Calm - N/A   Overcast
10:36 PM 10.4 °F - 3.2 °F 73% 29.65 in 10.0 mi Calm Calm - N/A   Overcast
10:56 PM 10.4 °F - 3.2 °F 73% 29.65 in 10.0 mi Calm Calm - N/A   Overcast
11:16 PM 10.4 °F - 3.2 °F 73% 29.66 in 10.0 mi Calm Calm - N/A   Overcast
11:36 PM 10.4 °F - 3.2 °F 73% 29.66 in 10.0 mi Calm Calm - N/A   Overcast
11:56 PM 10.4 °F - 3.2 °F 73% 29.67 in 10.0 mi Calm Calm - N/A   Overcast